Weather History for Seward, AK

Change the Weather History Date:

Monday, November 8, 2010

  Actual Average Record
Temperature  
Mean Temperature 32 °F -  
Max Temperature 33 °F 37 °F 48 °F (2003)
Min Temperature 30 °F 28 °F 5 °F (1990)
Degree Days  
Heating Degree Days 34    
Moisture  
Dew Point 27 °F    
Average Humidity 85    
Maximum Humidity 93    
Minimum Humidity 72    
Precipitation  
Precipitation 0.20 in - - ()
Sea Level Pressure  
Sea Level Pressure 29.46 in    
Wind  
Wind Speed 16 mph (North)    
Max Wind Speed 23 mph    
Max Gust Speed 31 mph    
Visibility 2 miles    
Events Fog , Snow    
Averages and records for this station are not official NWS values.
T = Trace of Precipitation, MM = Missing Value Source: NWS Daily Summary

Daily Weather History Graph

Daily Weather History Graph

Search for Another Location

Airport:

Trip Planner

Search our weather history database for the weather conditions in past years. The results will help you decide how hot, cold, wet, or windy it might be!

Date:

Astronomy

Nov. 08, 2010 Rise Set
Actual Time 8:39 AM AKST 4:42 PM AKST
Civil Twilight 7:51 AM AKST 5:30 PM AKST
Nautical Twilight 7:01 AM AKST 6:20 PM AKST
Astronomical Twilight 6:12 AM AKST 7:09 PM AKST
Moon 12:35 PM AKST (11/8) 5:50 PM AKST (11/8)
Length of Visible Light 9h 38m
Length of Day
8h 03m
Waxing Crescent, 9% of the Moon is Illuminated
Nov 8
Waxing Crescent
Nov 13
First Quarter
Nov 21
Full
Nov 28
Last Quarter
Dec 5
New

Hourly Weather History & Observations

Time (AKST) Temp. Windchill Dew Point Humidity Pressure Visibility Wind Dir Wind Speed Gust Speed Precip Events Conditions
12:17 AM 33.8 °F 23.9 °F 28.4 °F 81% 29.43 in 1.8 mi North 15.0 mph 26.5 mph 0.00 in Snow Light Snow
12:21 AM 33.8 °F 23.2 °F 30.2 °F 87% 29.43 in 1.0 mi North 17.3 mph 25.3 mph 0.00 in Snow Light Snow
12:29 AM 33.8 °F 23.5 °F 30.2 °F 87% 29.43 in 0.5 mi North 16.1 mph 26.5 mph 0.01 in Fog , Snow Snow
12:34 AM 33.8 °F 23.5 °F 30.2 °F 87% 29.43 in 0.5 mi North 16.1 mph 24.2 mph 0.02 in Fog , Snow Snow
12:53 AM 33.1 °F 21.2 °F 30.9 °F 92% 29.44 in 0.8 mi North 20.7 mph 27.6 mph 0.03 in Snow Light Snow
1:53 AM 32.0 °F 20.5 °F 30.0 °F 92% 29.44 in 0.8 mi North 18.4 mph 25.3 mph 0.03 in Snow Light Snow
2:53 AM 32.0 °F 20.5 °F 30.0 °F 92% 29.43 in 0.8 mi North 18.4 mph 24.2 mph 0.03 in Snow Light Snow
3:27 AM 32.0 °F 19.8 °F 28.4 °F 87% 29.42 in 1.0 mi North 20.7 mph - 0.01 in Snow Light Snow
3:46 AM 32.0 °F 20.1 °F 30.2 °F 93% 29.41 in 0.5 mi North 19.6 mph 29.9 mph 0.02 in Fog , Snow Snow
3:53 AM 32.0 °F 20.8 °F 28.9 °F 88% 29.42 in 0.8 mi North 17.3 mph 28.8 mph 0.02 in Snow Light Snow
3:58 AM 32.0 °F 21.2 °F 30.2 °F 93% 29.41 in 1.2 mi NNE 16.1 mph 28.8 mph 0.00 in Snow Light Snow
4:26 AM 32.0 °F 20.1 °F 28.4 °F 87% 29.41 in 2.0 mi North 19.6 mph - 0.00 in Snow Light Snow
4:41 AM 32.0 °F 21.2 °F 28.4 °F 87% 29.41 in 1.5 mi NNE 16.1 mph 24.2 mph 0.00 in Snow Light Snow
4:53 AM 32.0 °F 19.8 °F 28.9 °F 88% 29.41 in 0.8 mi North 20.7 mph 29.9 mph 0.00 in Snow Light Snow
5:07 AM 32.0 °F 20.1 °F 28.4 °F 87% 29.40 in 1.0 mi North 19.6 mph 31.1 mph 0.00 in Snow Light Snow
5:16 AM 32.0 °F 19.5 °F 28.4 °F 87% 29.40 in 1.8 mi North 21.9 mph 29.9 mph 0.00 in Snow Light Snow
5:44 AM 32.0 °F 20.5 °F 28.4 °F 87% 29.40 in 1.0 mi North 18.4 mph 27.6 mph 0.00 in Snow Light Snow
5:53 AM 32.0 °F 20.5 °F 28.9 °F 88% 29.39 in 1.0 mi North 18.4 mph 26.5 mph 0.00 in Snow Light Snow
6:23 AM 32.0 °F 20.5 °F 28.4 °F 87% 29.40 in 1.2 mi North 18.4 mph 28.8 mph 0.00 in Snow Light Snow
6:31 AM 32.0 °F 20.1 °F 28.4 °F 87% 29.40 in 1.2 mi North 19.6 mph 25.3 mph 0.00 in Snow Light Snow
6:53 AM 32.0 °F 21.6 °F 28.9 °F 88% 29.40 in 1.2 mi NNE 15.0 mph 27.6 mph 0.00 in Snow Light Snow
6:59 AM 32.0 °F 22.1 °F 28.4 °F 87% 29.40 in 1.8 mi North 13.8 mph 27.6 mph 0.00 in Snow Light Snow
7:05 AM 32.0 °F 19.8 °F 28.4 °F 87% 29.39 in 3.0 mi North 20.7 mph 28.8 mph 0.00 in Snow Light Snow
7:51 AM 33.8 °F 24.3 °F 28.4 °F 81% 29.40 in 5.0 mi North 13.8 mph - 0.00 in Snow Light Snow
7:53 AM 33.1 °F 23.0 °F 27.0 °F 78% 29.40 in 5.0 mi North 15.0 mph 20.7 mph 0.00 in Snow Light Snow
8:11 AM 32.0 °F 20.8 °F 26.6 °F 80% 29.41 in 1.8 mi North 17.3 mph 25.3 mph 0.00 in Snow Light Snow
8:24 AM 32.0 °F 20.5 °F 28.4 °F 87% 29.41 in 1.2 mi North 18.4 mph - 0.00 in Snow Light Snow
8:41 AM 30.2 °F 18.5 °F 28.4 °F 93% 29.41 in 1.0 mi North 17.3 mph 29.9 mph 0.00 in Snow Light Snow
8:53 AM 30.9 °F 19.4 °F 28.0 °F 89% 29.42 in 0.8 mi NNE 17.3 mph 25.3 mph 0.01 in Snow Light Snow
9:07 AM 30.2 °F 18.9 °F 28.4 °F 93% 29.41 in 0.8 mi North 16.1 mph 27.6 mph 0.00 in Snow Light Snow
9:16 AM 30.2 °F 18.9 °F 28.4 °F 93% 29.41 in 1.0 mi North 16.1 mph 23.0 mph 0.00 in Snow Light Snow
9:36 AM 32.0 °F 20.8 °F 26.6 °F 80% 29.42 in 0.8 mi North 17.3 mph 29.9 mph 0.00 in Snow Light Snow
9:43 AM 32.0 °F 21.2 °F 26.6 °F 80% 29.42 in 0.8 mi North 16.1 mph 25.3 mph 0.00 in Snow Light Snow
9:53 AM 30.9 °F 19.8 °F 27.0 °F 85% 29.42 in 0.8 mi NNE 16.1 mph 25.3 mph 0.00 in Snow Light Snow
10:08 AM 30.2 °F 18.9 °F 28.4 °F 93% 29.42 in 1.0 mi North 16.1 mph 23.0 mph 0.00 in Snow Light Snow
10:18 AM 32.0 °F 20.5 °F 26.6 °F 80% 29.42 in 2.0 mi North 18.4 mph 26.5 mph 0.00 in Snow Light Snow
10:53 AM 33.1 °F 20.6 °F 26.1 °F 75% 29.43 in 2.0 mi North 23.0 mph 29.9 mph 0.00 in Snow Light Snow
11:05 AM 32.0 °F 21.6 °F 26.6 °F 80% 29.43 in 3.0 mi North 15.0 mph 27.6 mph 0.00 in Snow Light Snow
11:09 AM 32.0 °F 21.2 °F 26.6 °F 80% 29.43 in 1.8 mi North 16.1 mph 26.5 mph 0.00 in Snow Light Snow
11:19 AM 32.0 °F 20.1 °F 26.6 °F 80% 29.44 in 1.0 mi North 19.6 mph 27.6 mph 0.00 in Snow Light Snow
11:25 AM 32.0 °F 20.1 °F 26.6 °F 80% 29.44 in 0.8 mi North 19.6 mph 28.8 mph 0.00 in Snow Light Snow
11:34 AM 32.0 °F 19.2 °F 26.6 °F 80% 29.44 in 1.5 mi North 23.0 mph 29.9 mph 0.00 in Snow Light Snow
11:51 AM 32.0 °F 19.5 °F 26.6 °F 80% 29.44 in 1.2 mi North 21.9 mph 28.8 mph 0.00 in Snow Light Snow
11:52 AM 32.0 °F 19.8 °F 26.1 °F 79% 29.44 in 1.5 mi North 20.7 mph 28.8 mph 0.00 in Snow Light Snow
11:59 AM 32.0 °F 19.8 °F 26.6 °F 80% 29.44 in 3.0 mi North 20.7 mph 28.8 mph 0.00 in Snow Light Snow
12:07 PM 32.0 °F 19.5 °F 26.6 °F 80% 29.44 in 6.0 mi North 21.9 mph 28.8 mph 0.00 in Snow Light Snow
12:42 PM 32.0 °F 20.1 °F 26.6 °F 80% 29.44 in 2.0 mi NNE 19.6 mph 27.6 mph 0.00 in Snow Light Snow
12:53 PM 32.0 °F 20.1 °F 26.1 °F 79% 29.44 in 4.0 mi North 19.6 mph 27.6 mph 0.01 in Snow Light Snow
1:24 PM 32.0 °F 20.1 °F 26.6 °F 80% 29.45 in 2.0 mi North 19.6 mph 27.6 mph 0.00 in Snow Light Snow
1:32 PM 32.0 °F 19.5 °F 26.6 °F 80% 29.45 in 1.2 mi North 21.9 mph 27.6 mph 0.00 in Snow Light Snow
1:50 PM 32.0 °F 20.5 °F 26.6 °F 80% 29.44 in 0.8 mi NNE 18.4 mph 26.5 mph 0.00 in Snow Light Snow
1:51 PM 32.0 °F 19.8 °F 27.0 °F 82% 29.44 in 0.8 mi NNE 20.7 mph 26.5 mph 0.00 in Snow Light Snow
1:59 PM 32.0 °F 19.5 °F 26.6 °F 80% 29.44 in 2.5 mi North 21.9 mph 28.8 mph 0.00 in Snow Light Snow
2:06 PM 32.0 °F 19.8 °F 26.6 °F 80% 29.45 in 4.0 mi NNE 20.7 mph 31.1 mph 0.00 in Snow Light Snow
2:14 PM 32.0 °F 21.2 °F 26.6 °F 80% 29.45 in 4.0 mi North 16.1 mph 29.9 mph 0.00 in Snow Light Snow
2:21 PM 32.0 °F 21.2 °F 26.6 °F 80% 29.45 in 1.8 mi North 16.1 mph 23.0 mph 0.00 in Snow Light Snow
2:29 PM 30.2 °F 18.9 °F 26.6 °F 86% 29.45 in 1.0 mi North 16.1 mph 23.0 mph 0.00 in Snow Light Snow
2:39 PM 30.2 °F 18.9 °F 26.6 °F 86% 29.45 in 2.0 mi NNE 16.1 mph 23.0 mph 0.00 in Snow Light Snow
2:48 PM 32.0 °F 20.5 °F 26.6 °F 80% 29.45 in 3.0 mi North 18.4 mph 24.2 mph 0.00 in Snow Light Snow
2:51 PM 32.0 °F 21.2 °F 26.6 °F 80% 29.45 in 2.5 mi NNE 16.1 mph 24.2 mph 0.00 in Snow Light Snow
2:53 PM 32.0 °F 20.8 °F 27.0 °F 82% 29.46 in 2.0 mi North 17.3 mph - 0.00 in Snow Light Snow
3:03 PM 32.0 °F 21.6 °F 26.6 °F 80% 29.46 in 8.0 mi North 15.0 mph 26.5 mph 0.00 in Snow Light Snow
3:15 PM 32.0 °F 23.0 °F 26.6 °F 80% 29.46 in 2.5 mi NNE 11.5 mph 24.2 mph 0.00 in Snow Light Snow
3:29 PM 30.2 °F 20.8 °F 26.6 °F 86% 29.47 in 1.5 mi NNE 11.5 mph - 0.00 in Snow Light Snow
3:53 PM 32.0 °F 22.1 °F 27.0 °F 82% 29.48 in 1.8 mi North 13.8 mph 20.7 mph 0.00 in Snow Light Snow
4:01 PM 32.0 °F 23.0 °F 26.6 °F 80% 29.48 in 3.0 mi North 11.5 mph 21.9 mph 0.00 in Snow Light Snow
4:12 PM 30.2 °F 21.3 °F 26.6 °F 86% 29.48 in 1.8 mi North 10.4 mph - 0.00 in Snow Light Snow
4:24 PM 30.2 °F 19.8 °F 26.6 °F 86% 29.49 in 1.0 mi North 13.8 mph - 0.00 in Snow Light Snow
4:33 PM 30.2 °F 20.2 °F 26.6 °F 86% 29.49 in 0.8 mi North 12.7 mph - 0.00 in Snow Light Snow
4:49 PM 30.2 °F 19.3 °F 26.6 °F 86% 29.49 in 1.0 mi NNW 15.0 mph - 0.00 in Snow Light Snow
4:53 PM 30.9 °F 19.8 °F 27.0 °F 85% 29.50 in 1.2 mi NNW 16.1 mph - 0.00 in Snow Light Snow
5:01 PM 30.2 °F 18.5 °F 26.6 °F 86% 29.50 in 2.0 mi North 17.3 mph - 0.00 in Snow Light Snow
5:05 PM 30.2 °F 19.8 °F 26.6 °F 86% 29.50 in 3.0 mi North 13.8 mph 20.7 mph 0.00 in Snow Light Snow
5:19 PM 30.2 °F 18.9 °F 26.6 °F 86% 29.50 in 2.0 mi North 16.1 mph 19.6 mph 0.00 in Snow Light Snow
5:26 PM 30.2 °F 20.8 °F 26.6 °F 86% 29.50 in 1.8 mi North 11.5 mph 20.7 mph 0.00 in Snow Light Snow
5:34 PM 30.2 °F 20.2 °F 26.6 °F 86% 29.50 in 3.0 mi NNE 12.7 mph - 0.00 in Snow Light Snow
5:53 PM 30.9 °F 21.7 °F 26.1 °F 82% 29.52 in 3.0 mi North 11.5 mph - 0.00 in Snow Light Snow
6:00 PM 30.2 °F 21.3 °F 26.6 °F 86% 29.52 in 2.5 mi North 10.4 mph - 0.01 in Snow Light Snow
6:08 PM 30.2 °F 20.2 °F 26.6 °F 86% 29.52 in 4.0 mi North 12.7 mph - 0.01 in Snow Light Snow
6:29 PM 30.2 °F 23.4 °F 26.6 °F 86% 29.53 in 7.0 mi North 6.9 mph - 0.01 in Snow Light Snow
6:37 PM 30.2 °F 26.7 °F 26.6 °F 86% 29.53 in 1.8 mi NNE 3.5 mph - 0.01 in Snow Light Snow
6:53 PM 30.9 °F 27.5 °F 28.0 °F 89% 29.55 in 1.2 mi NE 3.5 mph - 0.02 in Snow Light Snow
6:58 PM 30.2 °F 26.7 °F 28.4 °F 93% 29.55 in 0.8 mi NNE 3.5 mph - 0.01 in Snow Light Snow
7:08 PM 30.2 °F 25.4 °F 28.4 °F 93% 29.56 in 0.5 mi NE 4.6 mph - 0.03 in Fog , Snow Snow
7:19 PM 30.2 °F 26.7 °F 28.4 °F 93% 29.57 in 1.0 mi North 3.5 mph - 0.05 in Snow Light Snow
7:33 PM 30.2 °F 24.3 °F 28.4 °F 93% 29.58 in 2.5 mi North 5.8 mph - 0.05 in Snow Light Snow
7:40 PM 30.2 °F 25.4 °F 28.4 °F 93% 29.58 in 7.0 mi North 4.6 mph - 0.05 in Snow Light Snow
7:53 PM 30.0 °F 26.5 °F 28.0 °F 92% 29.60 in 10.0 mi NNE 3.5 mph - 0.05 in   Overcast
8:25 PM 30.2 °F 25.4 °F 26.6 °F 86% 29.62 in 10.0 mi NNW 4.6 mph - N/A   Overcast
8:53 PM 32.0 °F 28.7 °F 26.1 °F 79% 29.64 in 10.0 mi SSW 3.5 mph - N/A   Scattered Clouds
9:53 PM 33.1 °F 28.7 °F 25.0 °F 72% 29.65 in 10.0 mi SW 4.6 mph - N/A   Overcast
10:53 PM 30.0 °F 26.5 °F 27.0 °F 88% 29.66 in 9.0 mi NNE 3.5 mph - 0.00 in   Overcast
11:53 PM 30.0 °F 25.2 °F 27.0 °F 88% 29.67 in 10.0 mi NNW 4.6 mph - N/A   Overcast